GW0415 Weather Reports


time (UTC)temp
C
wind
direction
speed
KPH
gust
KPH
rain 1hr
cm
rain 24hr
cm
rain mn
cm
humidity
%
barometer
mb
20260506120814 3 63 4.8 4.8 0.00 0.00 0.00 63 1014.1
20260506120312 2 121 0.0 4.8 0.00 0.00 0.00 66 1013.8
20260506115809 2 72 4.8 8.0 0.00 0.00 0.00 68 1014.0
20260506115307 1 34 3.2 4.8 0.00 0.00 0.00 70 1013.8
20260506114805 1 36 3.2 4.8 0.00 0.00 0.00 72 1013.9
20260506114302 0 105 1.6 3.2 0.00 0.00 0.00 74 1013.7
20260506113801 0 90 0.0 3.2 0.00 0.00 0.00 74 1013.7
20260506113258 0 90 0.0 4.8 0.00 0.00 0.00 75 1013.6
20260506112754 0 117 0.0 3.2 0.00 0.00 0.00 76 1013.6
20260506112251 0 105 0.0 3.2 0.00 0.00 0.00 76 1013.5
20260506111749 0 342 0.0 3.2 0.00 0.00 0.00 76 1013.7
20260506111247 0 16 1.6 3.2 0.00 0.00 0.00 77 1013.6
20260506110743 -1 98 0.0 3.2 0.00 0.00 0.00 77 1013.8
20260506110241 -1 107 0.0 3.2 0.00 0.00 0.00 76 1013.8
20260506105737 -1 83 0.0 3.2 0.00 0.00 0.00 76 1013.9
20260506105235 -1 90 0.0 3.2 0.00 0.00 0.00 75 1013.7
20260506104732 0 103 3.2 3.2 0.00 0.00 0.00 75 1013.9
20260506104230 0 90 0.0 3.2 0.00 0.00 0.00 74 1013.8
20260506103727 0 90 0.0 3.2 0.00 0.00 0.00 74 1013.7
20260506103224 0 120 0.0 3.2 0.00 0.00 0.00 74 1013.6
20260506102722 0 84 0.0 3.2 0.00 0.00 0.00 74 1013.3
20260506102220 0 97 0.0 3.2 0.00 0.00 0.00 73 1013.3
20260506101716 0 103 0.0 3.2 0.00 0.00 0.00 74 1013.3
20260506101212 0 103 3.2 3.2 0.00 0.00 0.00 74 1013.2
20260506100711 0 102 1.6 3.2 0.00 0.00 0.00 74 1013.4
20260506100208 0 75 1.6 3.2 0.00 0.00 0.00 74 1013.3
20260506095707 0 90 0.0 3.2 0.00 0.00 0.00 74 1013.3
20260506095203 0 103 0.0 1.6 0.00 0.00 0.00 74 1013.4
20260506094700 0 117 1.6 3.2 0.00 0.00 0.00 74 1013.2
20260506094158 0 90 0.0 3.2 0.00 0.00 0.00 74 1013.4
20260506093657 0 66 0.0 3.2 0.00 0.00 0.00 74 1013.3
20260506093153 0 101 0.0 3.2 0.00 0.00 0.00 73 1013.2
20260506092651 0 90 1.6 3.2 0.00 0.00 0.00 73 1013.2
20260506092148 0 90 0.0 3.2 0.00 0.00 0.00 73 1013.5
20260506091646 0 77 0.0 3.2 0.00 0.00 0.00 73 1013.3
20260506091143 0 90 1.6 3.2 0.00 0.00 0.00 73 1013.5
20260506090641 0 103 3.2 3.2 0.00 0.00 0.00 72 1013.4
20260506090137 0 90 0.0 3.2 0.00 0.00 0.00 72 1013.5
20260506085634 0 90 0.0 3.2 0.00 0.00 0.00 72 1013.2
20260506085131 0 109 0.0 1.6 0.00 0.00 0.00 72 1013.0
20260506084627 0 90 0.0 3.2 0.00 0.00 0.00 71 1012.8
20260506084124 0 96 1.6 3.2 0.00 0.00 0.00 71 1012.9
20260506083621 0 114 0.0 3.2 0.00 0.00 0.00 70 1012.9
20260506083119 0 105 0.0 3.2 0.00 0.00 0.00 70 1013.0
20260506082615 0 98 0.0 1.6 0.00 0.00 0.00 69 1012.8
20260506082111 0 106 0.0 3.2 0.00 0.00 0.00 69 1013.0
20260506081609 1 105 0.0 1.6 0.00 0.00 0.00 69 1013.1
20260506081107 1 114 0.0 1.6 0.00 0.00 0.00 69 1012.9
20260506080604 1 103 1.6 3.2 0.00 0.00 0.00 67 1013.0
20260506073044 2 98 0.0 3.2 0.00 0.00 0.00 63 1012.8
20260506072541 2 90 3.2 8.0 0.00 0.00 0.00 64 1012.5
20260506072039 2 94 3.2 6.4 0.00 0.00 0.00 64 1012.6
20260506071537 2 71 0.0 8.0 0.00 0.00 0.00 64 1012.6
20260506071034 2 75 1.6 3.2 0.00 0.00 0.00 64 1012.7
20260506070531 2 50 3.2 6.4 0.00 0.00 0.00 63 1012.8
20260506062508 3 19 3.2 6.4 0.00 0.00 0.00 60 1012.5
20260506062005 3 117 1.6 9.7 0.00 0.00 0.00 59 1012.7
20260506061501 3 42 4.8 6.4 0.00 0.00 0.00 60 1012.7
20260506060959 3 131 0.0 4.8 0.00 0.00 0.00 60 1012.7
20260506060457 3 148 4.8 4.8 0.00 0.00 0.00 60 1012.5
20260506050926 3 75 3.2 4.8 0.00 0.00 0.00 58 1012.2
20260506050424 3 74 3.2 4.8 0.00 0.00 0.00 57 1012.0
20260506044914 4 114 1.6 4.8 0.00 0.00 0.00 56 1011.8
20260506044412 4 109 0.0 4.8 0.00 0.00 0.00 56 1012.2
20260506043909 4 84 3.2 4.8 0.00 0.00 0.00 55 1011.7
20260506043406 4 45 0.0 6.4 0.00 0.00 0.00 55 1011.9
20260506042904 4 74 3.2 9.7 0.00 0.00 0.00 55 1011.9
20260506042403 4 109 0.0 4.8 0.00 0.00 0.00 55 1011.7
20260506041901 5 105 3.2 8.0 0.00 0.00 0.00 54 1012.0
20260506041358 5 82 1.6 8.0 0.00 0.00 0.00 55 1012.0
20260506040855 5 83 1.6 8.0 0.00 0.00 0.00 54 1011.6
20260506040353 5 152 3.2 4.8 0.00 0.00 0.00 54 1011.9
20260506035848 5 109 3.2 6.4 0.00 0.00 0.00 54 1011.8
20260506035346 5 25 4.8 8.0 0.00 0.00 0.00 53 1011.8
20260506034843 5 61 3.2 9.7 0.00 0.00 0.00 52 1011.7
20260506034340 5 119 3.2 9.7 0.00 0.00 0.00 53 1011.7
20260506033837 5 143 0.0 6.4 0.00 0.00 0.00 53 1011.6
20260506033334 5 51 8.0 8.0 0.00 0.00 0.00 53 1011.7
20260506032831 5 30 6.4 17.7 0.00 0.00 0.00 53 1011.6
20260506032328 5 110 3.2 14.5 0.00 0.00 0.00 53 1011.6
20260506031825 5 135 4.8 6.4 0.00 0.00 0.00 54 1011.4
20260506031322 5 45 3.2 4.8 0.00 0.00 0.00 54 1011.4
20260506030819 5 99 4.8 9.7 0.00 0.00 0.00 54 1011.5
20260506030317 6 55 4.8 4.8 0.00 0.00 0.00 54 1011.4
20260506025814 6 103 0.0 6.4 0.00 0.00 0.00 53 1011.4
20260506025310 6 104 4.8 9.7 0.00 0.00 0.00 53 1011.3
20260506024808 6 41 3.2 4.8 0.00 0.00 0.00 52 1011.3
20260506024304 6 106 3.2 8.0 0.00 0.00 0.00 52 1011.0
20260506023800 6 51 4.8 8.0 0.00 0.00 0.00 52 1010.9
20260506023257 6 45 3.2 4.8 0.00 0.00 0.00 51 1011.0
20260506022754 6 79 3.2 4.8 0.00 0.00 0.00 51 1010.7
20260506022252 6 26 1.6 4.8 0.00 0.00 0.00 50 1010.8
20260506021750 6 82 1.6 6.4 0.00 0.00 0.00 49 1010.7
20260506021247 6 2 4.8 4.8 0.00 0.00 0.00 49 1010.7
20260506020743 6 63 0.0 6.4 0.00 0.00 0.00 49 1010.6
20260506020241 7 96 3.2 8.0 0.00 0.00 0.00 48 1010.5
20260506015738 7 25 4.8 4.8 0.00 0.00 0.00 48 1010.2
20260506015236 7 63 1.6 6.4 0.00 0.00 0.00 47 1010.2
20260506014732 7 127 0.0 8.0 0.00 0.00 0.00 48 1010.1
20260506014229 7 287 0.0 11.3 0.00 0.00 0.00 47 1010.3
20260506013726 7 270 0.0 6.4 0.00 0.00 0.00 47 1010.1
20260506013223 7 126 1.6 3.2 0.00 0.00 0.00 46 1010.0
20260506012719 7 66 1.6 9.7 0.00 0.00 0.00 45 1009.9
20260506012217 7 68 3.2 9.7 0.00 0.00 0.00 46 1009.9
20260506011714 7 106 0.0 9.7 0.00 0.00 0.00 47 1009.7
20260506011210 7 36 4.8 8.0 0.00 0.00 0.00 47 1009.7
20260506010709 8 4 3.2 9.7 0.00 0.00 0.00 46 1009.9
20260506010206 8 321 3.2 16.1 0.00 0.00 0.00 46 1009.6
20260506005703 8 180 4.8 4.8 0.00 0.00 0.00 45 1009.6
20260506005159 8 130 6.4 11.3 0.00 0.00 0.00 45 1009.6
20260506004655 8 79 0.0 19.3 0.00 0.00 0.00 44 1009.6
20260506004153 8 140 0.0 9.7 0.00 0.00 0.00 43 1009.6
20260506003649 9 125 0.0 6.4 0.00 0.00 0.00 43 1009.6
20260506003145 9 140 0.0 8.0 0.00 0.00 0.00 43 1009.2
20260506002641 9 6 1.6 6.4 0.00 0.00 0.00 42 1009.5
20260506002138 9 41 3.2 8.0 0.00 0.00 0.00 42 1009.3
20260506001633 9 140 4.8 4.8 0.00 0.00 0.00 42 1009.1
20260506001131 9 191 3.2 9.7 0.00 0.00 0.00 41 1009.2
20260506000628 9 149 4.8 6.4 0.00 0.00 0.00 41 1009.3
20260506000125 9 16 6.4 16.1 0.00 0.00 0.00 41 1009.2
20260505235623 9 75 4.8 8.0 0.00 0.00 0.00 41 1009.1
20260505235120 9 78 1.6 9.7 0.00 0.00 0.00 41 1009.4
20260505234617 9 139 3.2 14.5 0.00 0.00 0.00 41 1009.2
20260505234114 9 281 8.0 16.1 0.00 0.00 0.00 40 1009.3
20260505233611 10 129 0.0 4.8 0.00 0.00 0.00 41 1008.9
20260505233108 9 5 0.0 8.0 0.00 0.00 0.00 41 1009.1
20260505232606 10 74 4.8 8.0 0.00 0.00 0.00 40 1009.1
20260505232104 10 40 4.8 6.4 0.00 0.00 0.00 40 1008.9
20260505231600 10 147 4.8 6.4 0.00 0.00 0.00 41 1009.0
20260505231059 10 53 3.2 9.7 0.00 0.00 0.00 40 1009.1
20260505230556 10 285 3.2 8.0 0.00 0.00 0.00 41 1009.1
20260505230052 10 75 3.2 11.3 0.00 0.00 0.00 40 1009.0
20260505225549 10 106 0.0 8.0 0.00 0.00 0.00 41 1008.9
20260505225045 10 32 1.6 8.0 0.00 0.00 0.00 41 1008.9
20260505224542 10 188 0.0 8.0 0.00 0.00 0.00 41 1008.8
20260505224040 10 121 3.2 6.4 0.00 0.00 0.00 40 1008.8
20260505223537 10 14 4.8 11.3 0.00 0.00 0.00 40 1009.0
20260505223033 10 109 0.0 14.5 0.00 0.00 0.00 40 1009.0
20260505222529 10 241 3.2 9.7 0.00 0.00 0.00 39 1008.8
20260505222025 10 101 8.0 8.0 0.00 0.00 0.00 41 1009.1
20260505221523 10 54 1.6 17.7 0.00 0.00 0.00 39 1009.0
20260505221019 11 26 8.0 8.0 0.00 0.00 0.00 39 1009.1
20260505220517 11 21 0.0 6.4 0.00 0.00 0.00 39 1009.1
20260505220014 10 90 3.2 9.7 0.00 0.00 0.00 41 1008.9
20260505215512 10 137 6.4 11.3 0.00 0.00 0.00 40 1009.0
20260505215010 10 74 4.8 8.0 0.00 0.00 0.00 40 1009.1
20260505214508 10 94 0.0 17.7 0.00 0.00 0.00 40 1009.0
20260505214004 10 251 1.6 14.5 0.00 0.00 0.00 39 1009.1
20260505213502 11 95 3.2 8.0 0.00 0.00 0.00 39 1009.1
20260505212958 10 80 3.2 8.0 0.00 0.00 0.00 40 1009.0
20260505212455 10 196 6.4 8.0 0.00 0.00 0.00 40 1009.1
20260505211951 10 55 4.8 6.4 0.00 0.00 0.00 39 1009.1
20260505211449 10 56 3.2 11.3 0.00 0.00 0.00 39 1009.2
20260505210945 11 97 0.0 8.0 0.00 0.00 0.00 38 1009.3
20260505210442 11 270 3.2 8.0 0.00 0.00 0.00 38 1009.2
20260505205939 11 10 4.8 11.3 0.00 0.00 0.00 38 1009.2
20260505205438 11 200 1.6 12.9 0.00 0.00 0.00 38 1009.2
20260505204934 11 159 3.2 6.4 0.00 0.00 0.00 40 1009.0
20260505204432 11 312 3.2 8.0 0.00 0.00 0.00 39 1009.1
20260505203929 11 124 3.2 4.8 0.00 0.00 0.00 40 1009.4
20260505203425 11 147 3.2 6.4 0.00 0.00 0.00 39 1009.3
20260505202921 11 90 1.6 11.3 0.00 0.00 0.00 39 1009.2
20260505202418 11 173 1.6 8.0 0.00 0.00 0.00 38 1009.2
20260505201915 11 120 3.2 6.4 0.00 0.00 0.00 37 1009.3
20260505201412 11 93 4.8 8.0 0.00 0.00 0.00 39 1009.5
20260505200910 11 20 1.6 6.4 0.00 0.00 0.00 39 1009.4
20260505200407 11 172 0.0 14.5 0.00 0.00 0.00 39 1009.3
20260505195902 11 54 0.0 8.0 0.00 0.00 0.00 38 1009.4
20260505195400 11 133 4.8 16.1 0.00 0.00 0.00 38 1009.3
20260505194857 11 0 1.6 17.7 0.00 0.00 0.00 38 1009.2
20260505194354 11 147 4.8 25.7 0.00 0.00 0.00 38 1009.3
20260505193849 12 83 6.4 8.0 0.00 0.00 0.00 38 1009.4
20260505193347 11 180 0.0 6.4 0.00 0.00 0.00 38 1009.2
20260505192844 11 110 0.0 9.7 0.00 0.00 0.00 38 1009.2
20260505192343 11 123 4.8 8.0 0.00 0.00 0.00 38 1009.3
20260505191840 11 0 0.0 6.4 0.00 0.00 0.00 38 1009.1
20260505191338 12 122 4.8 9.7 0.00 0.00 0.00 38 1009.3
20260505190834 11 134 6.4 16.1 0.00 0.00 0.00 39 1009.3
20260505190330 11 96 4.8 9.7 0.00 0.00 0.00 37 1009.3
20260505185826 12 107 8.0 20.9 0.00 0.00 0.00 36 1009.4
20260505185322 12 135 0.0 9.7 0.00 0.00 0.00 38 1009.4
20260505184819 12 21 3.2 8.0 0.00 0.00 0.00 39 1009.3
20260505184316 11 106 1.6 8.0 0.00 0.00 0.00 39 1009.5
20260505183813 11 73 4.8 12.9 0.00 0.00 0.00 37 1009.3
20260505183310 11 45 6.4 9.7 0.00 0.00 0.00 37 1009.4
20260505182807 11 174 4.8 8.0 0.00 0.00 0.00 37 1009.4
20260505182306 11 330 3.2 16.1 0.00 0.00 0.00 36 1009.4
20260505181800 12 52 8.0 11.3 0.00 0.00 0.00 37 1009.4
20260505181257 11 101 0.0 12.9 0.00 0.00 0.00 38 1009.5
20260505180754 11 124 8.0 14.5 0.00 0.00 0.00 37 1009.3
20260505180250 11 135 12.9 12.9 0.00 0.00 0.00 40 1009.4
20260505175747 11 284 0.0 6.4 0.00 0.00 0.00 38 1009.6
20260505175243 10 106 1.6 9.7 0.00 0.00 0.00 37 1009.4
20260505174740 11 23 9.7 9.7 0.00 0.00 0.00 38 1009.3
20260505174237 10 170 3.2 8.0 0.00 0.00 0.00 39 1009.4
20260505173733 10 123 4.8 8.0 0.00 0.00 0.00 38 1009.6
20260505173230 10 154 1.6 9.7 0.00 0.00 0.00 38 1009.5
20260505172727 10 297 1.6 11.3 0.00 0.00 0.00 39 1009.6
20260505172224 10 68 4.8 14.5 0.00 0.00 0.00 38 1009.4
20260505171723 11 8 9.7 12.9 0.00 0.00 0.00 37 1009.5
20260505171221 11 120 1.6 6.4 0.00 0.00 0.00 39 1009.6
20260505170717 10 49 0.0 8.0 0.00 0.00 0.00 38 1009.6
20260505170215 10 12 0.0 14.5 0.00 0.00 0.00 38 1009.4
20260505165710 10 312 0.0 6.4 0.00 0.00 0.00 38 1009.6
20260505165206 11 92 0.0 22.5 0.00 0.00 0.00 36 1009.6
20260505164701 10 48 6.4 6.4 0.00 0.00 0.00 37 1009.5
20260505164159 10 229 8.0 14.5 0.00 0.00 0.00 38 1009.6
20260505163657 10 180 1.6 12.9 0.00 0.00 0.00 39 1009.5
20260505163155 10 351 3.2 6.4 0.00 0.00 0.00 38 1009.5
20260505162652 10 134 0.0 9.7 0.00 0.00 0.00 38 1009.6
20260505162149 11 32 0.0 9.7 0.00 0.00 0.00 38 1009.4
20260505161646 10 140 4.8 9.7 0.00 0.00 0.00 37 1009.5
20260505161143 12 22 3.2 9.7 0.00 0.00 0.00 34 1009.5
20260505160641 11 84 3.2 11.3 0.00 0.00 0.00 37 1009.7
20260505160138 10 27 8.0 14.5 0.00 0.00 0.00 37 1009.6
20260505153118 10 57 4.8 16.1 0.00 0.00 0.00 38 1009.5
20260505152614 10 50 3.2 16.1 0.00 0.00 0.00 37 1009.3
20260505152110 10 251 3.2 9.7 0.00 0.00 0.00 37 1009.7
20260505151605 10 124 3.2 11.3 0.00 0.00 0.00 37 1009.4
20260505151103 10 102 4.8 16.1 0.00 0.00 0.00 39 1009.6
20260505150559 10 219 6.4 11.3 0.00 0.00 0.00 40 1009.3
20260505140525 10 77 1.6 6.4 0.00 0.00 0.00 37 1008.9
20260505124938 7 176 0.0 8.0 0.00 0.00 0.00 44 1008.5
20260505124435 7 113 3.2 19.3 0.00 0.00 0.00 45 1008.4
20260505123931 7 20 6.4 11.3 0.00 0.00 0.00 46 1008.2
20260505123428 7 110 4.8 8.0 0.00 0.00 0.00 46 1008.1
20260505122923 7 121 3.2 4.8 0.00 0.00 0.00 49 1008.4
20260505122421 7 45 6.4 14.5 0.00 0.00 0.00 49 1007.8
20260505121918 6 114 0.0 6.4 0.00 0.00 0.00 52 1008.1
20260505121415 5 98 1.6 14.5 0.00 0.00 0.00 53 1007.7